This is the latest recevied weather packets stored in our database for station/object WE8M. If no packets are shown the sender has not sent any weather packets the latest 10 day(s).
| Time | Temp. | Humidity | Pressure | Rain* | Wind** | Luminosity | Snow |
|---|---|---|---|---|---|---|---|
| 1777304010 | 20.56° C | 65% | 1017.9 hPa | 0 mm | - | - | - |
| 1777303707 | 20° C | 65% | 1017.8 hPa | 0 mm | - | - | - |
| 1777303404 | 20° C | 66% | 1017.6 hPa | 0 mm | - | - | - |
| 1777303102 | 20° C | 68% | 1017.8 hPa | 0 mm | - | - | - |
| 1777302800 | 19.44° C | 65% | 1017.6 hPa | 0 mm | - | - | - |
| 1777302497 | 19.44° C | 66% | 1017.7 hPa | 0 mm | - | - | - |
| 1777302195 | 19.44° C | 66% | 1017.4 hPa | 0 mm | - | - | - |
| 1777301892 | 19.44° C | 65% | 1017.5 hPa | 0 mm | - | - | - |
| 1777301589 | 19.44° C | 65% | 1017.4 hPa | 0 mm | - | - | - |
| 1777301286 | 19.44° C | 66% | 1017.7 hPa | 0 mm | - | - | - |
| 1777300983 | 19.44° C | 67% | 1017.8 hPa | 0 mm | - | - | - |
| 1777300681 | 19.44° C | 65% | 1017.5 hPa | 0 mm | - | - | - |
| 1777300378 | 19.44° C | 68% | 1017.6 hPa | 0 mm | - | - | - |
| 1777300075 | 18.33° C | 69% | 1017.6 hPa | 0 mm | - | - | - |
| 1777299772 | 18.33° C | 70% | 1017.7 hPa | 0 mm | - | - | - |
| 1777299469 | 17.78° C | 69% | 1017.8 hPa | 0 mm | - | - | - |
| 1777299167 | 17.78° C | 69% | 1018 hPa | 0 mm | - | - | - |
| 1777298864 | 17.78° C | 70% | 1018 hPa | 0 mm | - | - | - |
| 1777298560 | 17.78° C | 70% | 1018.1 hPa | 0 mm | - | - | - |
| 1777298257 | 17.78° C | 70% | 1018 hPa | 0 mm | - | - | - |
| 1777297953 | 17.78° C | 70% | 1018.1 hPa | 0 mm | - | - | - |
| 1777297649 | 16.67° C | 72% | 1017.9 hPa | 0 mm | - | - | - |
| 1777297347 | 16.67° C | 73% | 1018 hPa | 0 mm | - | - | - |
| 1777297044 | 16.67° C | 73% | 1017.8 hPa | 0 mm | - | - | - |
| 1777296740 | 16.11° C | 74% | 1018 hPa | 0 mm | - | - | - |
* Rain latest hour (hover to see other rain measurements)
** Current wind speed in m/s (hover to see current wind gust speed)